Regional Weather Roundup
Issued by NWS

Home | Current Version | Previous Version | Text Only | Print | Product List | Glossary On
Versions: 1 2 3 4 5 6 7 8 9 10 11 12 13 14 15 16 17 18 19 20 21 22 23 24 25 26 27 28 29 30 31 32 33 34 35 36 37 38 39 40 41 42 43 44 45 46 47 48 49 50
000
ASUS45 KABQ 212010
RWRNM
WEATHER ROUNDUP FOR NEW MEXICO
NATIONAL WEATHER SERVICE ALBUQUERQUE NM
200 PM MDT TUE OCT 21 2014

NOTE: "FAIR" MEANS FEW OR NO CLOUDS BELOW 12,000 FEET AGL WITH NO
       SIGNIFICANT WEATHER OR OBSTRUCTIONS TO VISION.

      THIS PRODUCT IS RELEASED AS TWO VERSIONS.  ONE VERSION NEAR
      THE TOP OF THE HOUR CONTAINING PRELIMINARY DATA FROM ALBUQUERQUE
      AND OTHER STATIONS.  A FINAL VERSION WITH ADDITIONAL DATA IS
      ISSUED ABOUT 10 MINUTES AFTER THE HOUR.

NMZ501-503-504-510>518-212100-
NORTHWEST PLATEAU/NORTHCENTRAL MOUNTAINS

CITY           SKY/WX    TMP DP  RH WIND       PRES   REMARKS
FARMINGTON     MOSUNNY   66  41  40 CALM      30.07F
LOS ALAMOS     CLOUDY    53  46  76 S5        30.19F
SANTA FE       CLOUDY    61  45  55 W10       30.14F
TAOS           CLOUDY    57  39  51 W5        30.19F
ANGEL FIRE     CLOUDY    51  41  68 SE7       30.22F

$$
NMZ402-403-502-505>509-212100-
WESTCENTRAL MOUNTAINS/SOUTHWEST MOUNTAINS

CITY           SKY/WX    TMP DP  RH WIND       PRES   REMARKS
GALLUP         MOSUNNY   65  44  46 SW7       30.12F
GRANTS         MOSUNNY   64  39  39 SE9G17    30.14F
SILVER CITY    MOSUNNY   64  50  59 S12       30.12F

$$
NMZ407-409-411-412-212100-
SOUTHERN DESERTS

CITY           SKY/WX    TMP DP  RH WIND       PRES   REMARKS
LORDSBURG      FAIR      72  50  46 MISG      30.04F
DEMING         PTSUNNY   70  52  52 E8        30.05F
LAS CRUCES     MOSUNNY   69  52  55 CALM      30.08F
HOLLOMAN AFB   MOSUNNY   68  54  61 S5        30.06F
T OR C         MOSUNNY   65  51  60 CALM      30.08F

$$
NMZ519>523-212100-
CENTRAL VALLEYS/CENTRAL HIGHLANDS

CITY           SKY/WX    TMP DP  RH WIND       PRES   REMARKS
ALBUQUERQUE    PTSUNNY   64  44  48 VRB3      30.11F
DOUBLE EAGLE   PTSUNNY   63  46  55 S6        30.14F
MORIARTY ARPT  FAIR      64  44  49 S9        30.15F
CLINES CORNERS CLOUDY    59  43  55 SW9       30.16F
BELEN          FAIR      69  43  39 SW5       30.10F
SOCORRO        FAIR      66  50  56 S3        30.10F

$$
NMZ524>526-539-540-212100-
SOUTHCENTRAL MOUNTAINS

CITY           SKY/WX    TMP DP  RH WIND       PRES   REMARKS
RUIDOSO        CLOUDY    54  48  82 SE8       30.20F

$$
NMZ527>531-212100-
NORTHEAST HIGHLANDS/NORTHEAST PLAINS

CITY           SKY/WX    TMP DP  RH WIND       PRES   REMARKS
LAS VEGAS      MOSUNNY   60  44  55 S14       30.17F
RATON          PTSUNNY   66  45  46 S20G26    30.10F
CLAYTON        MOSUNNY   71  42  35 SW16G31   30.08F

$$
NMZ532>537-212100-
EASTCENTRAL PLAINS

CITY           SKY/WX    TMP DP  RH WIND       PRES   REMARKS
TUCUMCARI      PTSUNNY   74  47  38 SW14      30.06F
CANNON AFB     MOSUNNY   73  48  42 S13G22    30.09F
CLOVIS AIRPORT NOT AVBL

$$
NMZ028-029-538-212100-
SOUTHEAST PLAINS

CITY           SKY/WX    TMP DP  RH WIND       PRES   REMARKS
ROSWELL        CLOUDY    65  58  78 SW3       30.07F
CARLSBAD       MOSUNNY   69  59  70 S6G16     30.04F
HOBBS          RAIN      66  57  72 SE20G26   30.10F


$$



USA.gov is the U.S. government's official web portal to all federal, state and local government web resources and services.